カタログに戻る

KUIPER-00105

運用中通信LEO
NORAD 65143·PAYLOAD·🇺🇸 United States

打ち上げ Aug 11, 2025 から Cape Canaveral Space Force Station

Loading…

次のパス (今後24時間)

TLE

最新Source: CelesTrak SupGP

元期: Sep 14, 2026, 22:48 UTC

1 65143C 25171M   26257.95043982  .00004360  00000+0  57073-3 0  2571
2 65143  51.9008  48.7457 0000629 112.8921 220.4447 14.79931140    13

AllMySatでKUIPER-00105をリアルタイム追跡

Download on the App Store